THY9UT LROP-LTFM

Flight info

Callsign THY9UT
Flight time N/A
Altitude 39000
Route IDARU DCT NONQE DCT MAXOV DCT MATEL L620 RIXEN
Aircraft A359/H-SDE2E3GHIJ3J4J5LM1ORWXY/LB1D1

Departure

Time 2026-05-05 00:13
Airport Bucharest Henri Coandă International Airport (LROP)

Arrival

Time N/A
Airport İstanbul Airport (LTFM)
Time Latitude Longitude Altitude Speed Heading
2026-05-04 23:42 44.57268 26.08093 327 ft 0 kts 354°
2026-05-05 00:04 44.57251 26.08096 323 ft 4 kts 354°
2026-05-05 00:04 44.57226 26.08099 327 ft 3 kts 353°
2026-05-05 00:04 44.57205 26.08110 322 ft 4 kts 302°
2026-05-05 00:05 44.57200 26.08143 327 ft 4 kts 263°
2026-05-05 00:05 44.57202 26.08166 323 ft 1 kts 264°
2026-05-05 00:05 44.57202 26.08169 325 ft 0 kts 264°
2026-05-05 00:08 44.57202 26.08168 327 ft 2 kts 265°
2026-05-05 00:08 44.57218 26.08123 327 ft 5 kts 282°
2026-05-05 00:09 44.57213 26.08115 326 ft 0 kts 239°
2026-05-05 00:09 44.57188 26.08135 325 ft 6 kts 95°
2026-05-05 00:09 44.57200 26.08215 323 ft 10 kts 78°
2026-05-05 00:09 44.57219 26.08325 326 ft 13 kts 76°
2026-05-05 00:10 44.57227 26.08462 323 ft 15 kts 109°
2026-05-05 00:10 44.57128 26.08519 324 ft 17 kts 174°
2026-05-05 00:10 44.56999 26.08539 327 ft 20 kts 174°
2026-05-05 00:10 44.56896 26.08475 326 ft 17 kts 251°
2026-05-05 00:11 44.56850 26.08311 324 ft 19 kts 242°
2026-05-05 00:11 44.56785 26.08133 323 ft 22 kts 246°
2026-05-05 00:11 44.56740 26.07922 326 ft 24 kts 254°
2026-05-05 00:11 44.56685 26.07698 322 ft 24 kts 228°
2026-05-05 00:12 44.56528 26.07684 322 ft 24 kts 171°
2026-05-05 00:12 44.56480 26.07854 325 ft 23 kts 83°
2026-05-05 00:12 44.56522 26.08321 329 ft 87 kts 87°
2026-05-05 00:12 44.56608 26.09607 359 ft 176 kts 83°
2026-05-05 00:13 44.56786 26.11558 956 ft 214 kts 80°
2026-05-05 00:13 44.57017 26.13752 1925 ft 251 kts 81°
2026-05-05 00:13 44.57223 26.16388 2563 ft 296 kts 83°
2026-05-05 00:13 44.57428 26.19384 3691 ft 316 kts 84°
2026-05-05 00:14 44.57635 26.22401 5197 ft 304 kts 84°
2026-05-05 00:14 44.57834 26.25295 6607 ft 291 kts 83°
2026-05-05 00:14 44.58020 26.28066 7970 ft 280 kts 81°
2026-05-05 00:14 44.58206 26.30750 9216 ft 273 kts 81°
2026-05-05 00:15 44.58395 26.33400 10275 ft 273 kts 80°
2026-05-05 00:15 44.58600 26.36130 10870 ft 292 kts 80°